TimeEDT,TemperatureF,Dew PointF,Humidity,Sea Level PressureIn,VisibilityMPH,Wind Direction,Wind SpeedMPH,Gust SpeedMPH,PrecipitationIn,Events,Conditions,WindDirDegrees,DateUTC
12:15 AM,75.2,59.0,57,30.04,10.0,South,5.8,-,N/A,,Clear,170,2013-08-06 04:15:00
12:35 AM,73.4,59.0,61,30.04,10.0,SE,3.5,-,N/A,,Clear,140,2013-08-06 04:35:00
12:55 AM,73.4,59.0,61,30.04,10.0,SSE,3.5,-,N/A,,Clear,150,2013-08-06 04:55:00
1:15 AM,73.4,59.0,61,30.04,10.0,Calm,Calm,-,N/A,,Clear,0,2013-08-06 05:15:00
1:35 AM,71.6,60.8,69,30.04,10.0,Calm,Calm,-,N/A,,Clear,0,2013-08-06 05:35:00
1:55 AM,73.4,60.8,65,30.03,10.0,Calm,Calm,-,N/A,,Clear,0,2013-08-06 05:55:00
2:15 AM,71.6,60.8,69,30.03,10.0,Calm,Calm,-,N/A,,Clear,0,2013-08-06 06:15:00
2:35 AM,71.6,60.8,69,30.03,10.0,Calm,Calm,-,N/A,,Mostly Cloudy,0,2013-08-06 06:35:00
2:55 AM,71.6,60.8,69,30.03,10.0,Calm,Calm,-,N/A,,Scattered Clouds,0,2013-08-06 06:55:00
3:15 AM,71.6,60.8,69,30.01,10.0,Calm,Calm,-,N/A,,Scattered Clouds,0,2013-08-06 07:15:00
3:35 AM,71.6,60.8,69,30.01,10.0,ESE,3.5,-,N/A,,Clear,120,2013-08-06 07:35:00
3:55 AM,71.6,60.8,69,30.00,10.0,Calm,Calm,-,N/A,,Mostly Cloudy,0,2013-08-06 07:55:00
4:15 AM,71.6,60.8,69,30.00,10.0,Calm,Calm,-,N/A,,Scattered Clouds,0,2013-08-06 08:15:00
4:35 AM,71.6,60.8,69,30.00,10.0,Calm,Calm,-,N/A,,Clear,0,2013-08-06 08:35:00
4:55 AM,69.8,60.8,73,29.99,10.0,Calm,Calm,-,N/A,,Clear,0,2013-08-06 08:55:00
5:15 AM,69.8,60.8,73,29.99,10.0,Calm,Calm,-,N/A,,Clear,0,2013-08-06 09:15:00
5:35 AM,69.8,60.8,73,30.00,10.0,Calm,Calm,-,N/A,,Scattered Clouds,0,2013-08-06 09:35:00
5:55 AM,68.0,62.6,83,30.01,10.0,Calm,Calm,-,N/A,,Scattered Clouds,0,2013-08-06 09:55:00
6:15 AM,69.8,62.6,78,30.01,10.0,Calm,Calm,-,N/A,,Scattered Clouds,0,2013-08-06 10:15:00
6:35 AM,71.6,62.6,73,30.01,10.0,Calm,Calm,-,N/A,,Mostly Cloudy,0,2013-08-06 10:35:00
6:55 AM,69.8,62.6,78,30.02,10.0,Calm,Calm,-,N/A,,Scattered Clouds,0,2013-08-06 10:55:00
7:15 AM,69.8,62.6,78,30.02,10.0,Calm,Calm,-,N/A,,Scattered Clouds,0,2013-08-06 11:15:00
7:35 AM,71.6,62.6,73,30.03,10.0,Calm,Calm,-,N/A,,Mostly Cloudy,0,2013-08-06 11:35:00
7:55 AM,71.6,62.6,73,30.03,10.0,Calm,Calm,-,N/A,,Mostly Cloudy,0,2013-08-06 11:55:00
8:15 AM,73.4,60.8,65,30.04,10.0,Calm,Calm,-,N/A,,Mostly Cloudy,0,2013-08-06 12:15:00
8:35 AM,73.4,62.6,69,30.05,10.0,NE,3.5,-,N/A,,Overcast,40,2013-08-06 12:35:00
8:55 AM,73.4,60.8,65,30.06,10.0,NNE,4.6,-,N/A,,Overcast,20,2013-08-06 12:55:00
9:15 AM,73.4,60.8,65,30.05,10.0,ENE,3.5,-,N/A,,Overcast,60,2013-08-06 13:15:00
9:35 AM,73.4,60.8,65,30.06,10.0,NNE,3.5,-,N/A,,Overcast,30,2013-08-06 13:35:00
9:55 AM,75.2,62.6,65,30.07,10.0,NNE,3.5,-,N/A,,Mostly Cloudy,30,2013-08-06 13:55:00
10:15 AM,75.2,60.8,61,30.08,10.0,Calm,Calm,-,N/A,,Mostly Cloudy,0,2013-08-06 14:15:00
10:35 AM,75.2,62.6,65,30.07,10.0,Calm,Calm,-,N/A,Rain,Light Rain,0,2013-08-06 14:35:00
10:55 AM,73.4,64.4,73,30.07,10.0,Calm,Calm,-,N/A,Rain,Light Rain,0,2013-08-06 14:55:00
11:15 AM,73.4,66.2,78,30.08,10.0,Calm,Calm,-,N/A,Rain,Light Rain,0,2013-08-06 15:15:00
11:35 AM,73.4,64.4,73,30.08,10.0,Calm,Calm,-,N/A,Rain,Light Rain,0,2013-08-06 15:35:00
11:55 AM,73.4,66.2,78,30.08,7.0,NW,3.5,-,0.01,Rain,Light Rain,320,2013-08-06 15:55:00
12:15 PM,73.4,68.0,83,30.09,7.0,NNW,4.6,-,N/A,Rain,Light Rain,330,2013-08-06 16:15:00
12:35 PM,73.4,68.0,83,30.08,7.0,Calm,Calm,-,0.01,Rain,Rain,0,2013-08-06 16:35:00
12:55 PM,73.4,68.0,83,30.08,7.0,Calm,Calm,-,0.02,Rain,Light Rain,0,2013-08-06 16:55:00
1:15 PM,73.4,68.0,83,30.08,7.0,Calm,Calm,-,N/A,Rain,Light Rain,0,2013-08-06 17:15:00
1:35 PM,75.2,64.4,69,30.08,10.0,North,4.6,-,N/A,Rain,Light Rain,10,2013-08-06 17:35:00
1:55 PM,75.2,64.4,69,30.07,10.0,Calm,Calm,-,0.01,Rain,Light Rain,0,2013-08-06 17:55:00
2:15 PM,77.0,64.4,65,30.07,7.0,Calm,Calm,-,N/A,Rain,Light Rain,0,2013-08-06 18:15:00
2:35 PM,77.0,68.0,74,30.07,7.0,West,3.5,-,0.01,Rain,Light Rain,260,2013-08-06 18:35:00
2:55 PM,75.2,66.2,73,30.06,10.0,Calm,Calm,-,0.01,,Light Drizzle,0,2013-08-06 18:55:00
3:15 PM,77.0,68.0,74,30.07,10.0,Calm,Calm,-,N/A,,Light Drizzle,0,2013-08-06 19:15:00
3:35 PM,77.0,64.4,65,30.06,10.0,Calm,Calm,-,N/A,,Clear,0,2013-08-06 19:35:00
3:55 PM,78.8,64.4,61,30.05,10.0,Calm,Calm,-,N/A,,Clear,0,2013-08-06 19:55:00
4:15 PM,78.8,64.4,61,30.05,10.0,NE,3.5,-,N/A,,Scattered Clouds,50,2013-08-06 20:15:00
4:35 PM,78.8,64.4,61,30.05,10.0,ENE,4.6,-,N/A,,Overcast,70,2013-08-06 20:35:00
4:55 PM,78.8,64.4,61,30.05,10.0,East,3.5,-,N/A,,Overcast,90,2013-08-06 20:55:00
5:15 PM,78.8,64.4,61,30.05,10.0,Calm,Calm,-,N/A,,Overcast,0,2013-08-06 21:15:00
5:35 PM,78.8,64.4,61,30.04,10.0,Calm,Calm,-,N/A,,Overcast,0,2013-08-06 21:35:00
5:55 PM,78.8,66.2,65,30.05,10.0,Calm,Calm,-,N/A,,Mostly Cloudy,0,2013-08-06 21:55:00
6:15 PM,78.8,68.0,69,30.04,10.0,Calm,Calm,-,N/A,,Scattered Clouds,0,2013-08-06 22:15:00
6:35 PM,78.8,68.0,69,30.04,10.0,Calm,Calm,-,N/A,Rain,Rain,0,2013-08-06 22:35:00
6:55 PM,77.0,69.8,78,30.04,10.0,Calm,Calm,-,N/A,,Mostly Cloudy,0,2013-08-06 22:55:00
7:15 PM,78.8,68.0,69,30.05,10.0,Calm,Calm,-,N/A,,Mostly Cloudy,0,2013-08-06 23:15:00
7:35 PM,77.0,69.8,78,30.05,10.0,Calm,Calm,-,N/A,,Overcast,0,2013-08-06 23:35:00
7:55 PM,77.0,69.8,78,30.05,10.0,Calm,Calm,-,N/A,,Mostly Cloudy,0,2013-08-06 23:55:00
8:15 PM,77.0,66.2,69,30.05,10.0,Calm,Calm,-,N/A,,Mostly Cloudy,0,2013-08-07 00:15:00
8:35 PM,77.0,68.0,74,30.05,10.0,Calm,Calm,-,N/A,,Scattered Clouds,0,2013-08-07 00:35:00
8:55 PM,77.0,68.0,74,30.05,10.0,Calm,Calm,-,N/A,,Scattered Clouds,0,2013-08-07 00:55:00
9:15 PM,75.2,68.0,78,30.04,10.0,ESE,3.5,-,N/A,,Clear,110,2013-08-07 01:15:00
9:35 PM,73.4,68.0,83,30.05,10.0,East,3.5,-,N/A,,Scattered Clouds,90,2013-08-07 01:35:00
9:55 PM,73.4,68.0,83,30.05,10.0,East,4.6,-,N/A,,Mostly Cloudy,90,2013-08-07 01:55:00
10:15 PM,75.2,68.0,78,30.06,10.0,East,3.5,-,N/A,,Overcast,100,2013-08-07 02:15:00
10:35 PM,77.0,68.0,74,30.06,10.0,East,4.6,-,N/A,,Overcast,100,2013-08-07 02:35:00
10:55 PM,75.2,68.0,78,30.07,10.0,ESE,4.6,-,N/A,,Overcast,120,2013-08-07 02:55:00
11:15 PM,75.2,68.0,78,30.07,10.0,SE,3.5,-,N/A,,Scattered Clouds,130,2013-08-07 03:15:00
11:35 PM,75.2,68.0,78,30.07,10.0,SE,3.5,-,N/A,,Mostly Cloudy,130,2013-08-07 03:35:00
11:55 PM,75.2,66.2,73,30.07,10.0,ESE,3.5,-,N/A,,Scattered Clouds,110,2013-08-07 03:55:00